Regional Weather Roundup
Issued by NWS

Home | Current Version | Previous Version | Text Only | Print | Product List | Glossary Off
Versions: 1 2 3 4 5 6 7 8 9 10 11 12 13 14 15 16 17 18 19 20 21 22 23 24 25 26 27 28 29 30 31 32 33 34 35 36 37 38 39 40 41 42 43 44 45 46 47 48 49 50

678
ASUS43 KMPX 081410
RWRMN
WEATHER ROUNDUP FOR MINNESOTA
NATIONAL WEATHER SERVICE TWIN CITIES/CHANHASSEN MN
800 AM CST THU DEC 08 2016


NOTE: "FAIR" INDICATES FEW OR NO CLOUDS BELOW 12,000 FEET WITH NO
SIGNIFICANT WEATHER AND/OR OBSTRUCTIONS TO VISIBILITY. N/A MEANS
CURRENT SKY AND/OR WEATHER CONDITIONS ARE NOT AVAILABLE.

MNZ060>063-068>070-081500-
   Twin Cities Metro

CITY           SKY/WX    TMP DP  RH WIND       PRES   REMARKS
TWIN CITIES    PTCLDY    18  12  77 NW13      30.28R WCI   5
ST PAUL        PTCLDY    20  15  81 NW15G23   30.29R WCI   6
CRYSTAL        CLEAR     19  12  74 NW12      30.27R WCI   7
BLAINE         PTCLDY    19  16  86 W10       30.26R WCI   8
LAKEVILLE      MOCLDY    16  12  86 W13       30.27R WCI   2
EDEN PRAIRIE   PTCLDY    18  13  80 W9        30.28R WCI   7
SOUTH ST PAUL  CLOUDY    20  14  78 W12       30.27R WCI   8
LAKE ELMO      FAIR      19  16  86 W13       30.26R WCI   7
$$
MNZ001>005-007-008-013>017-022>024-027-028-081500-
   Northwest Minnesota

CITY           SKY/WX    TMP DP  RH WIND       PRES   REMARKS
BEMIDJI        LGT SNOW  15  12  87 NW14      30.28R WCI   1
HALLOCK        CLOUDY    16  12  86 NW20      30.42R WCI  -1
ROSEAU         LGT SNOW  18  12  79 NW9       30.35R WCI   6
WARROAD        CLOUDY    16  12  86 NW12      30.33R WCI   3
THIEF RVR FALL LGT SNOW  14  11  87 NW17      30.37R FOG     WCI  -3
CROOKSTON      LGT SNOW  14  12  92 N23G31    30.42R WCI  -5
FOSSTON        LGT SNOW  12  10  92 NW13      30.35R WCI  -3
DETROIT LAKES  LGT SNOW  16  14  93 NW16      30.36R WCI   0
MOORHEAD       MIX PCPN  16  10  79 NW17G24   30.44R WCI   0
PARK RAPIDS    FLURRIES  16   9  74 NW12      30.28R WCI   3
$$
MNZ006-009>011-018-025>026-081500-
   North Central Minnesota

CITY           SKY/WX    TMP DP  RH WIND       PRES   REMARKS
BAUDETTE       LGT SNOW  19  15  84 N14       30.28R FOG     WCI   6
FLAG ISLAND    CLOUDY    19  16  86 N23       30.32R WCI   2
INTL FALLS     LGT SNOW  18  14  84 NW10      30.22R FOG     WCI   6
WASKISH        MOCLDY    16  14  93 NW13      30.28R WCI   2
BIG FORK       LGT SNOW  18  16  93 NW5       30.22R WCI  11
LONGVILLE      LGT SNOW  18  14  86 NW9G20    30.25R WCI   6
GRAND RAPIDS   FLURRIES  16  13  88 NW10      30.24R WCI   4
CRANE LAKE     CLOUDY    19  16  86 N9G17     30.20R WCI   9
ORR            FLURRIES  16  12  86 NW3       30.16R
COOK           PTCLDY    16  14  93 NW7       30.18R WCI   6
$$
MNZ012-019>021-037-081500-
   Northeast Minnesota

CITY           SKY/WX    TMP DP  RH WIND       PRES   REMARKS
DULUTH         LGT SNOW  19  15  84 NW14      30.14R FOG     WCI   6
ELY            CLOUDY    18  16  93 NW8       30.13R WCI   7
HIBBING        LGT SNOW  17  13  84 NW16      30.18R FOG     WCI   2
EVELETH        MIX PCPN  20  16  83 NW9       30.17R WCI   9
DULUTH HARBOR  CLOUDY    25  18  74 NW16      30.20R WCI  12
TWO HARBORS    CLOUDY    25  18  74 NW8G17    30.11R WCI  16
SILVER BAY     CLOUDY    21  16  79 NW7       30.10R WCI  13
GRAND MARAIS     N/A     24  16  71 N12G22    30.09R WCI  13
G MARAIS ARPRT CLOUDY    16  10  79 NW9G20    30.03R WCI   4
$$
MNZ029>031-032-039>041-046>048-054>057-064-081500-
   West Central Minnesota

CITY           SKY/WX    TMP DP  RH WIND       PRES   REMARKS
FERGUS FALLS   LGT SNOW  12  10  92 NW20      30.45R WCI  -6
WHEATON        CLOUDY    12   9  85 W17G23    30.46R WCI  -5
MORRIS         LGT SNOW  12   9  85 NW23G35   30.39R WCI  -7
ALEXANDRIA     LGT SNOW  16  12  84 NW17G26   30.34R FOG     WCI   0
ELBOW LAKE     LGT SNOW  13  10  91 NW20      30.40R WCI  -5
WADENA         FLURRIES  14  10  85 NW13G21   30.31R WCI   0
GLENWOOD       FLURRIES  14  10  85 NW18      30.34R WCI  -3
APPLETON       CLOUDY    12   9  85 NW21G28   30.42R WCI  -6
BENSON         FLURRIES  12   9  85 N18G26    30.39R WCI  -5
ORTONVILLE     CLOUDY    10   5  79 NW22G30   30.44R WCI  -9
MADISON        CLOUDY    14   9  79 NW16G23   30.45R WCI  -2
WILLMAR        LGT SNOW  16  12  86 NW16G23   30.37R WCI   0
$$
MNZ033>034-036-042>043-049>051-058-059-081500-
   Central Minnesota

CITY           SKY/WX    TMP DP  RH WIND       PRES   REMARKS
ST CLOUD       CLEAR     18  13  80 NW16      30.29R WCI   3
PAYNESVILLE    FLURRIES  15  14  92 W13       30.33R WCI   2
AITKIN         MIX PCPN  21  12  68 NW10G17   30.23R WCI  10
PINE RIVER     CLOUDY    18  12  79 NW9       30.29R WCI   6
BRAINERD       CLOUDY    17  12  80 NW14      30.27R WCI   3
STAPLES        CLOUDY    14  10  85 NW10      30.29R WCI   1
LONG PRAIRIE   FLURRIES  18  12  79 W15       30.31R WCI   3
LITTLE FALLS   PTCLDY    19  12  73 NW9       30.29R WCI   9
LITCHFIELD     CLOUDY    18  12  79 NW15      30.33R WCI   3
BUFFALO        PTCLDY    19  14  79 NW9       30.31R WCI   9
MAPLE LAKE     CLEAR     20  16  83 NW13G18   30.30R WCI   8
HUTCHINSON     CLOUDY    17  13  83 W15       30.33R WCI   3
$$
MNZ037-044-045-052-053-081500-
   East Central Minnesota

CITY           SKY/WX    TMP DP  RH WIND       PRES   REMARKS
PRINCETON      CLEAR     19  14  79 W10G18    30.27R WCI   8
MORA           MOCLDY    21  16  79 NW12      30.25R WCI   9
CAMBRIDGE      FLURRIES  21  12  68 W10G17    30.24R WCI  10
RUSH CITY      CLOUDY    21  16  79 NW12G20   30.24R WCI   9
MOOSE LAKE     CLOUDY    21  16  79 NW9G16    30.19R WCI  11
HINCKLEY       CLOUDY    23  18  80 NW13G21   30.23R WCI  11
CLOQUET        LGT SNOW  19  14  79 NW9G16    30.17R WCI   9
MCGREGOR       MOCLDY    19  16  86 NW10      30.22R WCI   8
$$
MNZ071>073-080-081-089-090-097-098-081500-
   Southwest Minnesota

CITY           SKY/WX    TMP DP  RH WIND       PRES   REMARKS
MONTEVIDEO     FLURRIES  12   9  85 N17G24    30.43R WCI  -5
GRANITE FALLS  CLOUDY    15  10  82 W25G31    30.44R WCI  -5
CANBY          CLOUDY    13   7  78 NW17G24   30.46R WCI  -4
MARSHALL       CLOUDY    11   6  81 NW23      30.42R WCI  -9
REDWOOD FALLS  LGT SNOW  14   8  77 NW17G24   30.39R WCI  -3
OLIVIA         LGT SNOW  16  10  79 NW21      30.37R WCI  -2
PIPESTONE      CLEAR      9   3  78 NW16      30.42R WCI  -9
WINDOM         MOCLDY    12   7  79 NW21G26   30.37S WCI  -6
WORTHINGTON    CLEAR      8   4  83 W22       30.40R WCI -12
JACKSON        FLURRIES  10   5  79 NW17G24   30.38R WCI  -7
TRACY          MOCLDY    13   8  81 NW20G25   30.42R WCI  -5
SLAYTON        CLEAR      9   5  84 NW21      30.40R WCI -11
$$
MNZ065>067-074>077-082>085-091>093-081500-
   South Central Minnesota

CITY           SKY/WX    TMP DP  RH WIND       PRES   REMARKS
MANKATO        FLURRIES  15  11  83 NW21G29   30.32R WCI  -2
NEW ULM        FLURRIES  16  10  79 NW22G31   30.36R WCI  -2
ST JAMES       FLURRIES  14  10  85 W22G30    30.39R WCI  -4
FAIRMONT       FLURRIES  14   9  80 NW26      30.36S WCI  -6
GLENCOE        PTCLDY    18  15  89 W13       30.31R WCI   4
FARIBAULT      PTCLDY    16  12  86 W14G21    30.29R WCI   1
OWATONNA       PTCLDY    16  10  79 W14G20    30.29R WCI   1
WASECA         CLOUDY    18  14  86 W18G25    30.32R FOG     WCI   2
ALBERT LEA     LGT SNOW  18  16  93 NW12G18   30.29R WCI   5
$$
MNZ078>079-086>088-094>096-081500-
   Southeast Minnesota

CITY           SKY/WX    TMP DP  RH WIND       PRES   REMARKS
ROCHESTER      CLOUDY    15  11  83 W18       30.24R WCI  -2
RED WING       CLOUDY    19  12  73 NW10G17   30.25R WCI   8
STANTON        CLOUDY    18  13  81 W13       30.27R WCI   5
DODGE CENTER   FLURRIES  16  12  86 W17       30.25R WCI   0
WINONA           N/A     19  14  79 W10       30.26R WCI   8
AUSTIN         FLURRIES  16  10  79 NW14G22   30.28R WCI   1
PRESTON        LGT SNOW  15  11  84 NW17      30.25R WCI  -2
$$
ABBREVIATIONS USED IN REMARKS
   TC - TEMPERATURES IN CELSIUS
  WCI - WIND CHILL INDEX
   HX - HEAT INDEX
  VSB - VISIBILITY
$$




USA.gov is the U.S. government's official web portal to all federal, state and local government web resources and services.